Вернуться в каталог

SL-8 R/B

АктивенPO
NORAD 14059·ROCKET BODY·🇷🇺 Russia

Запущен May 6, 1983 с Plesetsk Cosmodrome

Loading…

Ближайшие Пролёты (ближайшие 24 часа)

TLE

СвежийSource: Space-Track

Эпоха: Sep 14, 2026, 18:23 UTC

1 14059U 83042B   26257.76643337  .00000038  00000-0  21154-4 0  9995
2 14059  82.9677  74.7779 0043296 138.7256 221.7190 13.79156151180793

Отслеживайте SL-8 R/B в реальном времени с AllMySat

Download on the App Store